This is the latest recevied weather packets stored in our database for station/object SR9NLI. If no packets are shown the sender has not sent any weather packets the latest 1 day(s).
| Time | Temp. | Humidity | Pressure | Rain* | Wind** | Luminosity | Snow |
|---|---|---|---|---|---|---|---|
| 1778017705 | 15.56° C | 100% | 949.4 hPa | - | 1.34 m/s, 53° | - | - |
| 1778017582 | 15.56° C | 100% | 949.3 hPa | - | 1.34 m/s, 51° | - | - |
| 1778017445 | 16.11° C | 100% | 949.2 hPa | - | 1.34 m/s, 86° | - | - |
| 1778017384 | 16.67° C | 100% | 949.3 hPa | - | 1.34 m/s, 121° | - | - |
| 1778017322 | 16.67° C | 100% | 949.3 hPa | - | 1.79 m/s, 129° | - | - |
| 1778017199 | 17.22° C | 100% | 949.4 hPa | - | 1.79 m/s, 154° | - | - |
| 1778017075 | 17.22° C | 100% | 949.3 hPa | - | 2.24 m/s, 157° | - | - |
| 1778017015 | 17.22° C | 100% | 949.3 hPa | - | 2.24 m/s, 158° | - | - |
| 1778016953 | 17.22° C | 100% | 949.3 hPa | - | 2.68 m/s, 157° | - | - |
| 1778016830 | 17.22° C | 100% | 949.4 hPa | - | 2.68 m/s, 155° | - | - |
| 1778016706 | 17.22° C | 100% | 949.3 hPa | - | 2.68 m/s, 163° | - | - |
| 1778016645 | 17.22° C | 100% | 949.5 hPa | - | 2.68 m/s, 165° | - | - |
| 1778016583 | 17.22° C | 100% | 949.5 hPa | - | 2.68 m/s, 168° | - | - |
| 1778016460 | 17.22° C | 100% | 949.4 hPa | - | 1.79 m/s, 165° | - | - |
| 1778016337 | 17.22° C | 100% | 949.6 hPa | - | 1.34 m/s, 173° | - | - |
| 1778016277 | 16.67° C | 100% | 949.6 hPa | - | 1.34 m/s, 172° | - | - |
| 1778016214 | 17.22° C | 100% | 949.5 hPa | - | 1.79 m/s, 170° | - | - |
| 1778016092 | 17.22° C | 100% | 949.5 hPa | - | 1.79 m/s, 162° | - | - |
| 1778015968 | 17.22° C | 100% | 949.6 hPa | - | 1.34 m/s, 173° | - | - |
| 1778015907 | 17.22° C | 100% | 949.6 hPa | - | 1.34 m/s, 180° | - | - |
| 1778015844 | 17.22° C | 100% | 949.5 hPa | - | 1.34 m/s, 184° | - | - |
| 1778015721 | 17.22° C | 100% | 949.6 hPa | - | 1.34 m/s, 179° | - | - |
| 1778015598 | 17.22° C | 100% | 949.6 hPa | - | 2.24 m/s, 176° | - | - |
| 1778015538 | 17.22° C | 100% | 949.6 hPa | - | 2.68 m/s, 173° | - | - |
| 1778015475 | 17.22° C | 100% | 949.7 hPa | - | 2.24 m/s, 173° | - | - |
* Rain since midnight (hover to see other rain measurements)
** Current wind speed in m/s (hover to see current wind gust speed)